Vorticity
3 2 5 1 2 7 0 -1 9 5 2 12 20 11 33 9 18 11 1 6 18 19 13 19 14 16 19 6 6 -0 2 -10 8 5 3 3 3 6 9 11 9 9 9 9
7 9 8 0 10 7 4 5 10 25 3 24 5 19 15 15 15 5 5 14 13 10 11 10 18 -0 8 9 6 6 4 -14 7 13 3 -1 -3 6 -5 18 13 11 10 8
11 8 4 12 8 10 11 17 1 5 10 16 17 -6 5 6 8 8 8 9 5 12 -0 6 2 -1 3 10 21 5 3 10 10 9 5 9 5 -3 6 14 8 11 8 5
8 3 2 1 8 8 15 -1 11 7 9 11 26 3 1 15 6 3 8 4 2 5 10 8 4 8 7 -3 3 10 7 6 10 -2 5 9 11 -8 11 8 4 7 9 8
5 2 9 -7 5 2 5 15 9 23 23 9 -22 19 -14 7 11 11 8 7 1 2 -1 4 -4 -1 -0 7 6 -2 7 10 8 9 14 3 1 -7 2 12 7 9 8 7
10 12 6 3 4 14 7 16 34 16 9 7 -7 31 13 12 23 32 11 4 6 6 8 2 5 5 12 5 4 9 9 1 5 11 9 -0 0 -5 10 20 7 8 9 8
15 12 4 2 3 9 6 34 9 3 8 -2 -3 37 15 -1 -12 17 17 7 -2 9 9 -0 8 14 3 7 4 11 9 2 -1 8 4 2 -1 18 14 8 11 14 13 10
10 17 2 -5 7 10 1 18 21 8 5 -11 36 28 17 -15 -22 -19 7 6 1 4 5 15 14 6 5 9 9 9 7 -4 3 4 1 11 11 11 10 9 11 8 5 7
10 13 12 14 -1 21 3 8 7 12 13 16 3 14 15 -12 -2 -18 -3 5 -0 1 9 13 8 6 10 5 -3 2 3 -2 -2 1 23 13 9 12 11 9 9 13 15 18
-1 19 2 19 28 -1 5 11 12 6 7 12 8 5 -4 5 -10 -10 29 10 4 10 18 11 -4 -2 2 3 4 2 1 5 17 9 10 11 9 6 9 13 21 23 28 26
13 8 -4 29 3 8 3 5 11 9 9 7 7 10 -9 -22 40 6 4 7 19 7 9 1 -3 13 2 4 -4 1 16 15 5 9 10 10 8 10 13 12 16 24 17 15
4 18 2 18 13 12 10 -0 -18 23 -2 -2 4 -1 60 -2 -0 12 10 10 12 10 5 -6 -3 3 13 -2 -6 9 10 15 14 10 11 10 6 9 12 12 17 15 3 9
8 -2 15 16 10 3 -8 -20 9 -3 34 6 -8 -0 -9 -22 -4 7 24 12 7 -1 1 9 2 8 19 14 14 6 17 11 9 5 7 12 10 11 16 25 16 6 6 16
17 2 1 -13 -13 -4 -3 0 3 7 22 -3 -21 -7 7 2 5 25 11 5 4 -2 7 3 -1 20 10 6 11 10 10 6 5 8 8 11 14 22 24 16 8 10 16 12
11 2 3 12 7 8 6 5 5 13 23 24 1 1 5 16 9 12 1 9 4 -1 -4 16 23 18 13 9 9 8 0 -0 3 14 12 15 21 22 16 9 13 19 19 15
1 15 -1 3 29 10 5 10 50 7 13 -3 -2 13 -3 13 21 11 6 -5 -3 4 12 1 0 19 9 5 9 8 5 6 6 14 16 28 33 9 16 21 18 13 -21 16
10 24 21 6 14 -1 59 -15 -2 3 -11 12 13 3 5 14 -13 1 9 9 15 24 1 32 13 14 3 8 7 6 9 8 12 15 26 27 13 11 11 9 11 8 4 5
9 15 16 -7 25 20 -16 -19 19 20 24 10 -0 14 -4 -20 13 9 2 10 12 -7 26 8 6 3 12 6 7 6 12 10 20 26 24 8 7 12 13 13 3 2 6 8
11 9 2 1 4 -17 2 34 11 13 -2 26 9 -4 -34 18 12 12 18 9 2 9 24 18 13 5 10 6 5 8 13 25 27 20 8 12 12 8 -3 3 9 5 10 12
14 6 12 -5 1 0 -26 -3 8 13 13 73 -10 -49 1 22 6 9 5 7 40 -4 6 5 5 2 6 13 15 19 24 29 8 18 13 5 7 11 13 5 9 11 12 10
3 14 9 15 3 6 5 19 8 31 -0 -36 16 11 19 0 17 -4 13 35 -6 6 4 4 8 15 15 21 26 19 22 7 8 10 11 14 12 7 9 11 11 10 9 9
3 2 -1 30 24 12 15 12 -16 -9 3 9 13 3 6 20 -5 33 23 10 7 2 3 15 12 15 18 21 19 9 8 16 18 3 3 11 7 8 11 11 9 11 13 12
13 19 1 -19 -39 -36 16 -5 8 30 12 4 5 17 18 0 9 35 1 -2 3 13 10 11 16 15 22 15 19 15 13 7 5 3 11 11 7 13 12 8 9 12 11 12
11 10 13 34 -33 19 10 10 32 12 4 14 15 -26 8 43 25 2 -2 14 11 10 12 13 19 23 19 12 10 17 19 11 18 12 5 10 13 11 7 9 11 12 13 13
-2 25 22 -27 5 9 2 20 22 3 28 -17 4 11 57 -4 4 -5 6 12 12 11 12 14 18 18 16 13 15 25 29 10 5 9 12 12 9 8 11 12 13 14 14 13
12 31 6 -4 27 4 12 31 -0 31 1 6 20 52 -28 7 7 9 7 14 10 12 12 19 12 13 13 12 14 10 6 8 13 12 11 8 9 13 15 15 15 15 12 12
Height
3161 3160 3160 3159 3159 3159 3159 3159 3157 3155 3154 3150 3147 3144 3141 3140 3141 3143 3143 3143 3143 3144 3145 3145 3145 3144 3144 3143 3142 3140 3137 3134 3131 3126 3123 3121 3118 3115 3111 3106 3103 3100 3096 3092
3161 3160 3160 3160 3159 3159 3159 3157 3156 3154 3153 3149 3146 3143 3141 3140 3140 3141 3142 3142 3141 3142 3142 3143 3142 3142 3142 3142 3139 3136 3133 3130 3126 3123 3119 3116 3113 3110 3105 3099 3094 3090 3087 3085
3160 3161 3160 3160 3159 3158 3157 3156 3154 3153 3149 3147 3144 3143 3142 3141 3141 3140 3140 3141 3141 3141 3141 3141 3140 3140 3139 3138 3135 3133 3131 3125 3120 3115 3112 3108 3105 3101 3097 3093 3087 3083 3078 3075
3160 3161 3160 3159 3158 3157 3155 3154 3152 3150 3149 3147 3144 3143 3142 3142 3141 3140 3139 3139 3140 3140 3138 3137 3136 3134 3133 3131 3129 3126 3123 3120 3116 3111 3106 3101 3096 3091 3086 3082 3079 3076 3072 3067
3161 3160 3159 3158 3158 3156 3154 3151 3147 3146 3146 3146 3145 3144 3143 3141 3140 3139 3140 3140 3139 3137 3135 3133 3131 3129 3128 3126 3123 3121 3117 3113 3108 3104 3099 3094 3088 3083 3078 3074 3069 3065 3062 3056
3159 3159 3159 3158 3157 3155 3152 3148 3145 3144 3145 3145 3144 3145 3143 3141 3140 3140 3141 3139 3137 3136 3134 3132 3130 3128 3124 3121 3117 3113 3109 3105 3101 3097 3092 3086 3080 3076 3070 3065 3060 3056 3051 3047
3159 3159 3158 3157 3156 3155 3152 3147 3146 3148 3148 3146 3143 3144 3144 3142 3140 3140 3140 3137 3135 3132 3129 3126 3123 3120 3117 3113 3109 3105 3101 3097 3093 3088 3083 3079 3074 3067 3060 3055 3049 3043 3037 3032
3158 3158 3157 3156 3156 3154 3152 3150 3149 3153 3154 3147 3143 3142 3143 3139 3137 3137 3136 3133 3130 3127 3125 3121 3118 3115 3111 3107 3103 3099 3094 3089 3085 3080 3074 3068 3062 3056 3050 3043 3037 3031 3024 3018
3158 3157 3156 3155 3155 3154 3152 3151 3152 3151 3152 3151 3144 3143 3141 3136 3136 3133 3128 3124 3123 3120 3118 3116 3113 3110 3105 3101 3097 3092 3086 3081 3075 3068 3062 3056 3050 3044 3038 3032 3025 3019 3013 3006
3159 3157 3156 3155 3154 3153 3152 3152 3152 3152 3155 3152 3145 3142 3138 3138 3133 3127 3123 3119 3117 3116 3114 3112 3108 3104 3099 3095 3090 3084 3078 3071 3065 3059 3053 3046 3040 3033 3026 3019 3012 3005 2998 2993
3158 3158 3157 3154 3153 3151 3151 3150 3151 3153 3153 3151 3148 3137 3134 3134 3129 3124 3122 3120 3116 3113 3110 3106 3103 3098 3093 3088 3082 3075 3068 3062 3056 3048 3041 3035 3027 3020 3013 3005 2999 2993 2989 2984
3159 3157 3154 3154 3151 3150 3149 3149 3150 3151 3152 3149 3147 3132 3128 3128 3125 3122 3120 3116 3113 3109 3105 3100 3095 3090 3085 3080 3073 3066 3059 3052 3046 3038 3030 3023 3016 3008 3000 2993 2987 2982 2979 2976
3158 3156 3155 3153 3155 3152 3149 3148 3147 3147 3145 3143 3143 3129 3127 3125 3121 3117 3113 3109 3107 3102 3097 3093 3089 3082 3075 3069 3062 3055 3048 3042 3035 3028 3021 3012 3004 2995 2987 2981 2976 2974 2971 2968
3156 3155 3155 3155 3153 3151 3145 3144 3143 3143 3139 3135 3129 3123 3121 3119 3114 3110 3108 3104 3100 3095 3089 3084 3078 3072 3065 3058 3052 3045 3039 3032 3025 3018 3009 2999 2991 2983 2976 2973 2969 2964 2962 2960
3154 3151 3150 3148 3148 3145 3139 3137 3135 3133 3129 3127 3121 3118 3116 3112 3108 3105 3102 3096 3091 3085 3080 3074 3068 3062 3055 3049 3044 3037 3030 3023 3014 3005 2996 2986 2978 2971 2966 2963 2960 2957 2954 2952
3151 3148 3146 3141 3142 3140 3133 3130 3128 3128 3125 3121 3118 3114 3112 3108 3103 3099 3094 3088 3084 3077 3070 3063 3057 3052 3045 3040 3034 3027 3020 3011 3001 2992 2984 2976 2969 2966 2962 2958 2955 2952 2948 2943
3147 3145 3144 3141 3138 3136 3127 3124 3124 3121 3121 3117 3112 3110 3106 3102 3097 3093 3086 3082 3076 3069 3061 3055 3050 3043 3038 3031 3024 3016 3008 2998 2989 2981 2975 2969 2964 2960 2956 2952 2948 2944 2940 2937
3142 3142 3141 3138 3137 3136 3126 3122 3119 3115 3114 3111 3109 3104 3099 3095 3090 3085 3079 3073 3066 3058 3052 3047 3041 3035 3030 3023 3015 3006 2996 2987 2978 2972 2967 2964 2959 2955 2951 2947 2943 2939 2935 2930
3139 3138 3136 3134 3130 3125 3118 3115 3114 3109 3107 3105 3102 3097 3093 3087 3081 3078 3071 3065 3060 3052 3044 3038 3033 3028 3020 3013 3004 2994 2985 2977 2970 2965 2961 2958 2953 2949 2946 2942 2937 2932 2927 2923
3136 3135 3135 3129 3126 3117 3112 3110 3107 3103 3095 3096 3093 3089 3083 3079 3070 3067 3061 3056 3049 3042 3037 3031 3024 3017 3009 3000 2992 2984 2976 2969 2966 2961 2956 2953 2948 2943 2939 2936 2930 2925 2920 2915
3132 3130 3126 3122 3117 3110 3105 3103 3101 3101 3099 3089 3086 3080 3076 3070 3066 3058 3052 3047 3041 3036 3030 3024 3016 3006 2998 2989 2982 2976 2970 2966 2961 2956 2951 2947 2942 2938 2934 2929 2923 2918 2913 2908
3129 3126 3121 3115 3113 3107 3102 3099 3099 3094 3086 3081 3077 3072 3067 3060 3055 3049 3043 3038 3034 3028 3021 3014 3006 2997 2989 2982 2974 2969 2964 2960 2956 2951 2946 2942 2937 2932 2927 2922 2917 2911 2906 2900
3119 3117 3112 3111 3102 3099 3097 3092 3088 3083 3077 3071 3068 3062 3056 3051 3044 3039 3034 3032 3026 3018 3011 3004 2995 2987 2981 2974 2968 2963 2958 2954 2950 2945 2940 2936 2931 2926 2921 2915 2910 2904 2899 2892
3107 3109 3100 3098 3095 3091 3089 3085 3080 3073 3069 3064 3058 3053 3046 3042 3035 3031 3028 3022 3016 3010 3001 2994 2987 2979 2973 2968 2964 2959 2953 2948 2944 2939 2935 2930 2925 2920 2915 2909 2903 2897 2891 2885
3100 3096 3091 3086 3084 3080 3078 3072 3066 3063 3058 3051 3048 3043 3036 3031 3031 3027 3020 3013 3007 3001 2993 2985 2978 2973 2966 2962 2957 2952 2947 2943 2939 2934 2929 2925 2920 2914 2909 2903 2896 2891 2885 2879
3089 3086 3084 3074 3077 3072 3065 3058 3055 3052 3048 3043 3039 3035 3031 3028 3025 3019 3013 3006 2999 2993 2987 2980 2972 2966 2962 2956 2952 2947 2942 2938 2934 2929 2924 2919 2914 2908 2902 2896 2891 2885 2879 2874